Location: Chamerau
(49.1969°N, 12.7525°E)
Time: 15:36:03
(UTC+00:00)

USA 186 - Pass Details

Date: 18 September 2020
Orbit: 261 x 425 km, 96.9° (Epoch: 12 October)

Event Time Altitude Azimuth Distance (km) Brightness Sun altitude
Exits shadow 18:49:23 14° 179° (S) 1,232 3.9 -15.9°
Maximum altitude 18:51:57 63° 260° (W) 464 2.1 -16.3°
Drops below altitude 10° 18:55:10 10° 342° (NNW) 1,512 5.1 -16.7°
Sets 18:57:15 0° 345° (NNW) 2,397 6.2 -17.1°
